| time (UTC) | temp F | wind direction | speed MPH | gust MPH | rain 1hr in | rain 24hr in | rain mn in | humidity % | barometer mb |
| 20260509182647 | 67 | 340 | 2.0 | 6.0 | 0.12 | 0.00 | 1.43 | 99 | 1012.5 |
| 20260509182147 | 67 | 190 | 6.0 | 6.0 | 0.09 | 0.00 | 1.42 | 99 | 1012.9 |
| 20260509181646 | 67 | 147 | 5.0 | 9.0 | 0.07 | 0.00 | 1.41 | 99 | 1012.9 |
| 20260509181147 | 67 | 177 | 3.0 | 7.0 | 0.02 | 0.00 | 1.40 | 99 | 1012.5 |
| 20260509180646 | 67 | 182 | 3.0 | 7.0 | 0.02 | 0.00 | 1.40 | 99 | 1012.9 |
| 20260509180146 | 67 | 148 | 4.0 | 4.0 | 0.02 | 0.00 | 1.40 | 99 | 1012.5 |
| 20260509175646 | 67 | 344 | 2.0 | 5.0 | 0.02 | 0.00 | 1.39 | 99 | 1012.5 |
| 20260509175147 | 67 | 297 | 3.0 | 5.0 | 0.07 | 0.00 | 1.39 | 99 | 1012.2 |
| 20260509174647 | 67 | 129 | 2.0 | 7.0 | 0.17 | 0.00 | 1.39 | 99 | 1012.5 |
| 20260509174146 | 67 | 142 | 3.0 | 6.0 | 0.17 | 0.00 | 1.38 | 99 | 1012.5 |
| 20260509173647 | 67 | 73 | 5.0 | 8.0 | 0.12 | 0.00 | 1.36 | 99 | 1011.9 |
| 20260509173146 | 67 | 4 | 3.0 | 8.0 | 0.17 | 0.00 | 1.35 | 99 | 1012.9 |
| 20260509172646 | 67 | 158 | 4.0 | 11.0 | 0.33 | 0.00 | 1.34 | 99 | 1012.9 |
| 20260509172148 | 67 | 327 | 2.0 | 5.0 | 0.33 | 0.00 | 1.32 | 99 | 1013.2 |
| 20260509171646 | 67 | 47 | 3.0 | 5.0 | 0.17 | 0.00 | 1.28 | 99 | 1013.2 |
| 20260509171147 | 67 | 52 | 2.0 | 5.0 | 0.38 | 0.00 | 1.27 | 99 | 1013.5 |
| 20260509170647 | 67 | 193 | 3.0 | 4.0 | 0.80 | 0.00 | 1.25 | 99 | 1013.2 |
| 20260509170148 | 66 | 75 | 4.0 | 6.0 | 0.85 | 0.00 | 1.20 | 99 | 1013.2 |
| 20260509165649 | 66 | 19 | 0.0 | 10.0 | 0.64 | 0.00 | 1.12 | 99 | 1013.2 |
| 20260509165146 | 66 | 107 | 3.0 | 5.0 | 0.40 | 0.00 | 1.05 | 99 | 1013.5 |
| 20260509164647 | 66 | 30 | 3.0 | 8.0 | 0.35 | 0.00 | 1.01 | 99 | 1013.2 |
| 20260509164150 | 66 | 49 | 10.0 | 12.0 | 0.28 | 0.00 | 0.98 | 99 | 1013.2 |
| 20260509163646 | 67 | 45 | 8.0 | 12.0 | 0.14 | 0.00 | 0.95 | 99 | 1013.5 |
| 20260509163148 | 66 | 41 | 7.0 | 13.0 | 0.07 | 0.00 | 0.93 | 98 | 1013.5 |
| 20260509162647 | 66 | 72 | 9.0 | 14.0 | 0.14 | 0.00 | 0.93 | 99 | 1013.2 |
| 20260509162147 | 66 | 69 | 9.0 | 16.0 | 0.17 | 0.00 | 0.92 | 99 | 1013.2 |
| 20260509161647 | 66 | 66 | 6.0 | 12.0 | 0.21 | 0.00 | 0.90 | 99 | 1013.2 |
| 20260509161150 | 66 | 50 | 9.0 | 13.0 | 0.35 | 0.00 | 0.89 | 99 | 1013.5 |
| 20260509160646 | 67 | 54 | 11.0 | 13.0 | 0.31 | 0.00 | 0.87 | 99 | 1013.5 |
| 20260509160146 | 67 | 73 | 8.0 | 13.0 | 0.17 | 0.00 | 0.83 | 99 | 1013.5 |
| 20260509155647 | 67 | 70 | 7.0 | 10.0 | 0.42 | 0.00 | 0.81 | 99 | 1013.5 |
| 20260509155149 | 67 | 25 | 2.0 | 14.0 | 0.69 | 0.00 | 0.79 | 98 | 1013.5 |
| 20260509154648 | 67 | 78 | 5.0 | 15.0 | 0.59 | 0.00 | 0.73 | 98 | 1013.2 |
| 20260509154146 | 67 | 59 | 4.0 | 9.0 | 0.50 | 0.00 | 0.68 | 97 | 1013.5 |
| 20260509153646 | 67 | 29 | 6.0 | 12.0 | 0.31 | 0.00 | 0.63 | 96 | 1013.2 |
| 20260509153147 | 68 | 6 | 5.0 | 10.0 | 0.07 | 0.00 | 0.59 | 96 | 1012.9 |
| 20260509152648 | 68 | 52 | 9.0 | 19.0 | 0.00 | 0.00 | 0.58 | 95 | 1012.9 |
| 20260509152148 | 68 | 36 | 7.0 | 16.0 | 0.00 | 0.00 | 0.58 | 95 | 1012.9 |
| 20260509151647 | 68 | 37 | 3.0 | 9.0 | 0.00 | 0.00 | 0.58 | 95 | 1013.2 |
| 20260509151149 | 68 | 12 | 5.0 | 15.0 | 0.00 | 0.00 | 0.58 | 95 | 1012.9 |
| 20260509150648 | 68 | 94 | 4.0 | 17.0 | 0.00 | 0.00 | 0.58 | 96 | 1012.9 |
| 20260509150149 | 68 | 56 | 15.0 | 18.0 | 0.00 | 0.00 | 0.58 | 96 | 1012.5 |
| 20260509145649 | 69 | 64 | 9.0 | 15.0 | 0.00 | 0.00 | 0.58 | 96 | 1012.9 |
| 20260509145148 | 69 | 23 | 5.0 | 13.0 | 0.00 | 0.00 | 0.58 | 97 | 1012.9 |
| 20260509144647 | 69 | 8 | 3.0 | 13.0 | 0.00 | 0.00 | 0.58 | 97 | 1012.9 |
| 20260509144148 | 69 | 59 | 12.0 | 19.0 | 0.02 | 0.00 | 0.58 | 98 | 1012.5 |
| 20260509143649 | 68 | 28 | 6.0 | 15.0 | 0.07 | 0.00 | 0.58 | 98 | 1012.5 |
| 20260509143147 | 68 | 42 | 9.0 | 12.0 | 0.12 | 0.00 | 0.58 | 99 | 1012.9 |
| 20260509142648 | 68 | 32 | 4.0 | 14.0 | 0.05 | 0.00 | 0.57 | 99 | 1012.5 |
| 20260509142148 | 68 | 28 | 8.0 | 14.0 | 0.02 | 0.00 | 0.56 | 99 | 1012.9 |
| 20260509141650 | 68 | 28 | 5.0 | 13.0 | 0.05 | 0.00 | 0.56 | 99 | 1013.2 |
| 20260509141148 | 68 | 28 | 7.0 | 12.0 | 0.17 | 0.00 | 0.56 | 99 | 1012.9 |
| 20260509140650 | 68 | 16 | 5.0 | 10.0 | 0.19 | 0.00 | 0.55 | 99 | 1013.2 |
| 20260509140147 | 68 | 340 | 3.0 | 5.0 | 0.17 | 0.00 | 0.53 | 99 | 1013.2 |
| 20260509135646 | 67 | 329 | 5.0 | 7.0 | 0.19 | 0.00 | 0.52 | 99 | 1013.5 |
| 20260509135151 | 67 | 299 | 9.0 | 11.0 | 0.24 | 0.00 | 0.50 | 99 | 1013.5 |
| 20260509134647 | 67 | 339 | 4.0 | 11.0 | 0.19 | 0.00 | 0.48 | 99 | 1013.2 |
| 20260509134146 | 67 | 301 | 3.0 | 9.0 | 0.42 | 0.00 | 0.46 | 99 | 1012.9 |
| 20260509133649 | 67 | 348 | 5.0 | 9.0 | 0.52 | 0.00 | 0.45 | 99 | 1012.9 |
| 20260509133151 | 67 | 328 | 7.0 | 13.0 | 0.76 | 0.00 | 0.38 | 99 | 1012.9 |
| 20260509132648 | 67 | 313 | 9.0 | 17.0 | 1.39 | 0.00 | 0.35 | 99 | 1012.9 |
| 20260509132146 | 67 | 293 | 9.0 | 15.0 | 1.53 | 0.00 | 0.26 | 98 | 1012.9 |
| 20260509131646 | 69 | 322 | 11.0 | 22.0 | 0.69 | 0.00 | 0.11 | 93 | 1012.9 |
| 20260509131149 | 75 | 346 | 9.0 | 23.0 | 0.00 | 0.00 | 0.00 | 90 | 1012.5 |
| 20260509130650 | 76 | 260 | 3.0 | 7.0 | 0.00 | 0.00 | 0.00 | 96 | 1011.9 |
| 20260509130147 | 76 | 213 | 3.0 | 5.0 | 0.00 | 0.00 | 0.00 | 96 | 1011.2 |
| 20260509125647 | 75 | 170 | 7.0 | 11.0 | 0.00 | 0.00 | 0.00 | 96 | 1010.8 |
| 20260509125147 | 75 | 189 | 7.0 | 12.0 | 0.00 | 0.00 | 0.00 | 96 | 1010.5 |
| 20260509124649 | 75 | 168 | 3.0 | 5.0 | 0.00 | 0.00 | 0.00 | 96 | 1010.8 |
| 20260509124148 | 75 | 201 | 3.0 | 9.0 | 0.00 | 0.00 | 0.00 | 96 | 1010.5 |
| 20260509123646 | 75 | 184 | 5.0 | 8.0 | 0.00 | 0.00 | 0.00 | 96 | 1010.5 |
| 20260509123149 | 75 | 162 | 7.0 | 11.0 | 0.00 | 0.00 | 0.00 | 96 | 1010.2 |
| 20260509122646 | 74 | 186 | 4.0 | 7.0 | 0.00 | 0.00 | 0.00 | 96 | 1010.5 |
| 20260509122148 | 74 | 143 | 5.0 | 8.0 | 0.00 | 0.00 | 0.00 | 96 | 1010.5 |
| 20260509121649 | 74 | 168 | 6.0 | 10.0 | 0.00 | 0.00 | 0.00 | 96 | 1010.2 |
| 20260509121147 | 73 | 178 | 6.0 | 9.0 | 0.00 | 0.00 | 0.00 | 97 | 1010.2 |
| 20260509120647 | 73 | 160 | 6.0 | 9.0 | 0.00 | 0.00 | 0.00 | 97 | 1010.2 |
| 20260509120146 | 72 | 184 | 4.0 | 7.0 | 0.00 | 0.00 | 0.00 | 96 | 1010.2 |
| 20260509115646 | 72 | 167 | 3.0 | 6.0 | 0.00 | 0.00 | 0.00 | 96 | 1010.2 |
| 20260509115147 | 72 | 165 | 3.0 | 6.0 | 0.00 | 0.00 | 0.00 | 96 | 1009.8 |
| 20260509114647 | 72 | 152 | 3.0 | 6.0 | 0.00 | 0.00 | 0.00 | 96 | 1010.2 |
| 20260509114150 | 72 | 163 | 3.0 | 5.0 | 0.00 | 0.00 | 0.00 | 96 | 1010.2 |
| 20260509113651 | 72 | 84 | 2.0 | 5.0 | 0.00 | 0.00 | 0.00 | 96 | 1009.8 |
| 20260509113150 | 72 | 150 | 2.0 | 4.0 | 0.00 | 0.00 | 0.00 | 95 | 1009.8 |
| 20260509112647 | 72 | 155 | 3.0 | 5.0 | 0.00 | 0.00 | 0.00 | 95 | 1009.8 |
| 20260509112150 | 72 | 163 | 2.0 | 4.0 | 0.00 | 0.00 | 0.00 | 95 | 1009.5 |
| 20260509111647 | 73 | 141 | 5.0 | 7.0 | 0.00 | 0.00 | 0.00 | 94 | 1009.5 |
| 20260509111148 | 73 | 185 | 3.0 | 6.0 | 0.00 | 0.00 | 0.00 | 94 | 1009.8 |
| 20260509110647 | 73 | 182 | 3.0 | 7.0 | 0.00 | 0.00 | 0.00 | 93 | 1009.8 |
| 20260509110152 | 73 | 168 | 6.0 | 7.0 | 0.00 | 0.00 | 0.00 | 93 | 1009.5 |
| 20260509105646 | 73 | 164 | 4.0 | 6.0 | 0.00 | 0.00 | 0.00 | 93 | 1009.5 |
| 20260509105148 | 73 | 168 | 4.0 | 8.0 | 0.00 | 0.00 | 0.00 | 93 | 1009.8 |
| 20260509104646 | 73 | 146 | 9.0 | 9.0 | 0.00 | 0.00 | 0.00 | 93 | 1009.5 |
| 20260509104147 | 73 | 150 | 3.0 | 8.0 | 0.00 | 0.00 | 0.00 | 93 | 1009.1 |
| 20260509103646 | 73 | 194 | 3.0 | 8.0 | 0.00 | 0.00 | 0.00 | 92 | 1009.8 |
| 20260509103146 | 73 | 176 | 5.0 | 7.0 | 0.00 | 0.00 | 0.00 | 92 | 1009.5 |
| 20260509102647 | 73 | 139 | 6.0 | 11.0 | 0.00 | 0.00 | 0.00 | 92 | 1009.1 |
| 20260509102146 | 73 | 147 | 9.0 | 13.0 | 0.00 | 0.00 | 0.00 | 92 | 1008.8 |
| 20260509101647 | 73 | 175 | 7.0 | 10.0 | 0.00 | 0.00 | 0.00 | 92 | 1009.1 |
| 20260509101150 | 73 | 172 | 4.0 | 12.0 | 0.00 | 0.00 | 0.00 | 91 | 1009.1 |
| 20260509100651 | 72 | 150 | 9.0 | 14.0 | 0.00 | 0.00 | 0.00 | 91 | 1009.1 |
| 20260509100146 | 72 | 135 | 6.0 | 12.0 | 0.00 | 0.00 | 0.00 | 91 | 1008.8 |
| 20260509095650 | 72 | 160 | 5.0 | 9.0 | 0.00 | 0.00 | 0.00 | 91 | 1009.1 |
| 20260509095146 | 72 | 161 | 3.0 | 7.0 | 0.00 | 0.00 | 0.00 | 91 | 1009.1 |
| 20260509094648 | 72 | 76 | 3.0 | 9.0 | 0.00 | 0.00 | 0.00 | 91 | 1009.1 |
| 20260509094146 | 72 | 128 | 8.0 | 10.0 | 0.00 | 0.00 | 0.00 | 91 | 1009.1 |
| 20260509093648 | 72 | 154 | 7.0 | 13.0 | 0.00 | 0.00 | 0.00 | 91 | 1009.1 |
| 20260509093149 | 72 | 152 | 5.0 | 7.0 | 0.00 | 0.00 | 0.00 | 91 | 1009.1 |
| 20260509092648 | 72 | 146 | 6.0 | 9.0 | 0.00 | 0.00 | 0.00 | 91 | 1009.1 |
| 20260509092147 | 72 | 125 | 4.0 | 8.0 | 0.00 | 0.00 | 0.00 | 90 | 1009.1 |
| 20260509091646 | 72 | 145 | 8.0 | 11.0 | 0.00 | 0.00 | 0.00 | 90 | 1009.1 |
| 20260509091147 | 72 | 149 | 7.0 | 9.0 | 0.00 | 0.00 | 0.00 | 90 | 1009.1 |
| 20260509090646 | 72 | 150 | 3.0 | 6.0 | 0.00 | 0.00 | 0.00 | 90 | 1009.5 |
| 20260509090151 | 72 | 144 | 4.0 | 9.0 | 0.00 | 0.00 | 0.00 | 90 | 1009.1 |
| 20260509085647 | 72 | 147 | 3.0 | 10.0 | 0.00 | 0.00 | 0.00 | 89 | 1009.5 |
| 20260509085148 | 72 | 163 | 3.0 | 10.0 | 0.00 | 0.00 | 0.00 | 89 | 1009.5 |
| 20260509084646 | 72 | 165 | 7.0 | 9.0 | 0.00 | 0.00 | 0.00 | 89 | 1009.8 |
| 20260509084146 | 72 | 150 | 5.0 | 8.0 | 0.00 | 0.00 | 0.00 | 89 | 1009.8 |
| 20260509083648 | 72 | 147 | 3.0 | 7.0 | 0.00 | 0.00 | 0.00 | 89 | 1009.8 |
| 20260509083148 | 72 | 146 | 5.0 | 8.0 | 0.00 | 0.00 | 0.00 | 90 | 1010.2 |
| 20260509082646 | 72 | 213 | 3.0 | 8.0 | 0.00 | 0.00 | 0.00 | 90 | 1010.2 |
| 20260509082147 | 72 | 150 | 4.0 | 7.0 | 0.00 | 0.00 | 0.00 | 89 | 1010.2 |
| 20260509081650 | 72 | 157 | 3.0 | 8.0 | 0.00 | 0.00 | 0.00 | 89 | 1010.5 |
| 20260509081150 | 72 | 158 | 3.0 | 6.0 | 0.00 | 0.00 | 0.00 | 89 | 1010.5 |
| 20260509080648 | 72 | 191 | 1.0 | 6.0 | 0.00 | 0.00 | 0.00 | 89 | 1010.5 |
| 20260509080148 | 72 | 117 | 4.0 | 7.0 | 0.00 | 0.00 | 0.00 | 89 | 1010.5 |
| 20260509075648 | 72 | 151 | 2.0 | 7.0 | 0.00 | 0.00 | 0.00 | 89 | 1010.8 |
| 20260509075148 | 72 | 153 | 3.0 | 7.0 | 0.00 | 0.00 | 0.00 | 89 | 1010.2 |
| 20260509074647 | 72 | 111 | 5.0 | 8.0 | 0.00 | 0.00 | 0.00 | 89 | 1010.2 |
| 20260509074147 | 72 | 118 | 3.0 | 6.0 | 0.00 | 0.00 | 0.00 | 88 | 1010.5 |
| 20260509073647 | 72 | 144 | 4.0 | 6.0 | 0.00 | 0.00 | 0.00 | 88 | 1011.2 |
| 20260509073148 | 72 | 160 | 4.0 | 5.0 | 0.00 | 0.00 | 0.00 | 88 | 1011.2 |
| 20260509072647 | 72 | 135 | 0.0 | 4.0 | 0.00 | 0.00 | 0.00 | 88 | 1011.2 |
| 20260509072148 | 72 | 328 | 2.0 | 3.0 | 0.00 | 0.00 | 0.00 | 89 | 1011.2 |
| 20260509071647 | 72 | 155 | 0.0 | 5.0 | 0.00 | 0.00 | 0.00 | 89 | 1011.2 |
| 20260509071147 | 72 | 158 | 0.0 | 4.0 | 0.00 | 0.00 | 0.00 | 90 | 1011.2 |
| 20260509070646 | 72 | 299 | 2.0 | 3.0 | 0.00 | 0.00 | 0.00 | 90 | 1011.2 |
| 20260509070150 | 72 | 50 | 1.0 | 5.0 | 0.00 | 0.00 | 0.00 | 90 | 1011.2 |
| 20260509065649 | 72 | 29 | 3.0 | 5.0 | 0.00 | 0.00 | 0.00 | 91 | 1011.5 |
| 20260509065146 | 72 | 85 | 0.0 | 3.0 | 0.00 | 0.00 | 0.00 | 91 | 1011.5 |
| 20260509064648 | 72 | 45 | 2.0 | 3.0 | 0.00 | 0.00 | 0.00 | 91 | 1011.5 |
| 20260509064147 | 72 | 2 | 2.0 | 4.0 | 0.00 | 0.00 | 0.00 | 93 | 1011.5 |
| 20260509063647 | 71 | 348 | 4.0 | 5.0 | 0.00 | 0.00 | 0.00 | 93 | 1011.9 |
| 20260509063147 | 71 | 323 | 5.0 | 5.0 | 0.00 | 0.00 | 0.00 | 94 | 1011.9 |
| 20260509062650 | 71 | 333 | 3.0 | 8.0 | 0.00 | 0.00 | 0.00 | 94 | 1011.9 |
| 20260509062146 | 71 | 337 | 4.0 | 5.0 | 0.00 | 0.00 | 0.00 | 93 | 1011.9 |
| 20260509061647 | 71 | 13 | 4.0 | 6.0 | 0.00 | 0.00 | 0.00 | 93 | 1011.5 |
| 20260509061149 | 71 | 8 | 2.0 | 4.0 | 0.00 | 0.00 | 0.00 | 93 | 1011.5 |
| 20260509060646 | 71 | 19 | 2.0 | 4.0 | 0.00 | 0.00 | 0.00 | 95 | 1011.5 |
| 20260509060149 | 71 | 336 | 0.0 | 3.0 | 0.00 | 0.00 | 0.00 | 96 | 1011.9 |
| 20260509055646 | 71 | 337 | 2.0 | 2.0 | 0.00 | 0.00 | 0.00 | 96 | 1011.9 |
| 20260509055147 | 70 | 306 | 1.0 | 3.0 | 0.00 | 0.00 | 0.00 | 97 | 1012.2 |
| 20260509054647 | 70 | 318 | 3.0 | 3.0 | 0.00 | 0.00 | 0.00 | 97 | 1012.2 |
| 20260509054146 | 70 | 315 | 3.0 | 4.0 | 0.00 | 0.00 | 0.00 | 96 | 1012.2 |
| 20260509053647 | 71 | 310 | 2.0 | 3.0 | 0.00 | 0.00 | 0.00 | 95 | 1011.9 |
| 20260509053147 | 71 | 269 | 0.0 | 1.0 | 0.00 | 0.00 | 0.00 | 95 | 1011.9 |
| 20260509052646 | 71 | 239 | 1.0 | 2.0 | 0.00 | 0.00 | 0.00 | 95 | 1011.9 |
| 20260509052148 | 71 | 251 | 1.0 | 2.0 | 0.00 | 0.00 | 0.00 | 95 | 1011.9 |
| 20260509051647 | 71 | 325 | 0.0 | 2.0 | 0.00 | 0.00 | 0.00 | 95 | 1011.9 |
| 20260509051147 | 71 | 269 | 1.0 | 3.0 | 0.00 | 0.00 | 0.00 | 95 | 1011.9 |
| 20260509050648 | 71 | 211 | 1.0 | 2.0 | 0.00 | 0.00 | 0.00 | 95 | 1011.9 |
| 20260509050147 | 71 | 216 | 1.0 | 2.0 | 0.00 | 0.00 | 0.00 | 95 | 1011.9 |
| 20260509045647 | 71 | 179 | 1.0 | 3.0 | 0.00 | 0.00 | 0.90 | 95 | 1011.9 |
| 20260509045147 | 71 | 214 | 1.0 | 4.0 | 0.00 | 0.00 | 0.90 | 95 | 1011.9 |
| 20260509044647 | 71 | 179 | 2.0 | 3.0 | 0.00 | 0.00 | 0.90 | 96 | 1011.9 |
| 20260509044148 | 71 | 180 | 3.0 | 4.0 | 0.00 | 0.00 | 0.90 | 96 | 1011.9 |
| 20260509043647 | 71 | 173 | 3.0 | 5.0 | 0.00 | 0.00 | 0.90 | 96 | 1011.9 |
| 20260509043149 | 71 | 157 | 4.0 | 5.0 | 0.00 | 0.00 | 0.90 | 96 | 1011.5 |
| 20260509042647 | 71 | 267 | 0.0 | 5.0 | 0.00 | 0.00 | 0.90 | 96 | 1011.5 |
| 20260509042147 | 71 | 174 | 3.0 | 6.0 | 0.00 | 0.00 | 0.90 | 96 | 1011.5 |
| 20260509041646 | 71 | 158 | 6.0 | 6.0 | 0.00 | 0.00 | 0.90 | 96 | 1011.5 |
| 20260509041146 | 71 | 172 | 2.0 | 7.0 | 0.00 | 0.00 | 0.90 | 96 | 1011.5 |
| 20260509040646 | 71 | 176 | 5.0 | 8.0 | 0.00 | 0.00 | 0.90 | 96 | 1011.2 |
| 20260509040146 | 71 | 175 | 4.0 | 8.0 | 0.00 | 0.00 | 0.90 | 96 | 1011.5 |
| 20260509035646 | 71 | 165 | 5.0 | 9.0 | 0.00 | 0.00 | 0.90 | 96 | 1011.2 |
| 20260509035147 | 71 | 160 | 5.0 | 10.0 | 0.00 | 0.00 | 0.90 | 96 | 1011.5 |
| 20260509034647 | 71 | 163 | 4.0 | 6.0 | 0.00 | 0.00 | 0.90 | 96 | 1011.2 |
| 20260509034148 | 71 | 181 | 3.0 | 8.0 | 0.00 | 0.00 | 0.90 | 96 | 1011.5 |
| 20260509033646 | 71 | 142 | 4.0 | 9.0 | 0.00 | 0.00 | 0.90 | 97 | 1011.2 |
| 20260509033147 | 71 | 182 | 2.0 | 5.0 | 0.00 | 0.00 | 0.90 | 96 | 1011.2 |
| 20260509032647 | 71 | 147 | 6.0 | 9.0 | 0.00 | 0.00 | 0.90 | 96 | 1011.2 |
| 20260509032146 | 71 | 146 | 7.0 | 7.0 | 0.00 | 0.00 | 0.90 | 96 | 1011.5 |
| 20260509031646 | 71 | 138 | 3.0 | 4.0 | 0.00 | 0.00 | 0.90 | 96 | 1011.5 |
| 20260509031147 | 71 | 178 | 0.0 | 4.0 | 0.00 | 0.00 | 0.90 | 96 | 1011.5 |
| 20260509030648 | 71 | 208 | 2.0 | 3.0 | 0.00 | 0.00 | 0.90 | 96 | 1011.5 |
| 20260509030146 | 71 | 255 | 0.0 | 3.0 | 0.00 | 0.00 | 0.90 | 96 | 1011.5 |
| 20260509025646 | 71 | 50 | 0.0 | 3.0 | 0.00 | 0.00 | 0.90 | 96 | 1011.9 |
| 20260509025146 | 71 | 333 | 1.0 | 3.0 | 0.00 | 0.00 | 0.90 | 97 | 1011.5 |
| 20260509024647 | 70 | 343 | 0.0 | 3.0 | 0.00 | 0.00 | 0.90 | 97 | 1011.2 |
| 20260509024147 | 70 | 173 | 0.0 | 3.0 | 0.00 | 0.00 | 0.90 | 97 | 1011.5 |
| 20260509023646 | 70 | 0 | 1.0 | 2.0 | 0.00 | 0.00 | 0.90 | 96 | 1011.5 |
| 20260509023146 | 70 | 210 | 1.0 | 2.0 | 0.00 | 0.00 | 0.90 | 96 | 1011.5 |
| 20260509022649 | 70 | 31 | 2.0 | 5.0 | 0.00 | 0.00 | 0.90 | 97 | 1011.2 |
| 20260509022150 | 70 | 62 | 2.0 | 5.0 | 0.00 | 0.00 | 0.90 | 97 | 1010.8 |
| 20260509021652 | 70 | 137 | 1.0 | 4.0 | 0.00 | 0.00 | 0.90 | 97 | 1010.8 |
| 20260509021146 | 70 | 116 | 3.0 | 6.0 | 0.00 | 0.00 | 0.90 | 97 | 1010.5 |
| 20260509020648 | 70 | 140 | 4.0 | 7.0 | 0.00 | 0.00 | 0.90 | 97 | 1010.8 |
| 20260509020148 | 70 | 35 | 1.0 | 4.0 | 0.00 | 0.00 | 0.90 | 97 | 1010.8 |
| 20260509015647 | 70 | 150 | 1.0 | 10.0 | 0.00 | 0.00 | 0.90 | 97 | 1010.8 |
| 20260509015149 | 70 | 148 | 5.0 | 5.0 | 0.00 | 0.00 | 0.90 | 98 | 1010.5 |
| 20260509014647 | 70 | 130 | 5.0 | 10.0 | 0.00 | 0.00 | 0.90 | 98 | 1010.5 |
| 20260509014148 | 69 | 125 | 2.0 | 11.0 | 0.00 | 0.00 | 0.90 | 98 | 1010.8 |
| 20260509013646 | 69 | 148 | 9.0 | 9.0 | 0.00 | 0.00 | 0.90 | 98 | 1010.8 |
| 20260509013147 | 69 | 161 | 5.0 | 8.0 | 0.00 | 0.00 | 0.90 | 98 | 1010.5 |
| 20260509012647 | 69 | 96 | 4.0 | 8.0 | 0.00 | 0.00 | 0.90 | 98 | 1010.5 |
| 20260509012148 | 69 | 108 | 2.0 | 7.0 | 0.00 | 0.00 | 0.90 | 98 | 1010.5 |
| 20260509011647 | 69 | 147 | 4.0 | 5.0 | 0.00 | 0.00 | 0.90 | 98 | 1010.5 |
| 20260509011149 | 69 | 58 | 3.0 | 5.0 | 0.00 | 0.00 | 0.90 | 97 | 1010.8 |
| 20260509010647 | 69 | 100 | 4.0 | 8.0 | 0.00 | 0.00 | 0.90 | 97 | 1010.8 |
| 20260509010149 | 69 | 142 | 3.0 | 9.0 | 0.00 | 0.00 | 0.90 | 97 | 1010.5 |
| 20260509005647 | 70 | 103 | 3.0 | 8.0 | 0.00 | 0.00 | 0.90 | 97 | 1010.5 |
| 20260509005147 | 70 | 100 | 1.0 | 10.0 | 0.00 | 0.00 | 0.90 | 97 | 1010.8 |
| 20260509004646 | 70 | 124 | 5.0 | 7.0 | 0.00 | 0.00 | 0.90 | 97 | 1010.8 |
| 20260509004148 | 70 | 164 | 4.0 | 6.0 | 0.00 | 0.00 | 0.90 | 97 | 1010.8 |
| 20260509003646 | 70 | 296 | 1.0 | 5.0 | 0.00 | 0.00 | 0.90 | 97 | 1011.2 |
| 20260509003147 | 70 | 103 | 2.0 | 5.0 | 0.00 | 0.00 | 0.90 | 97 | 1011.2 |
| 20260509002647 | 70 | 64 | 4.0 | 6.0 | 0.00 | 0.00 | 0.90 | 97 | 1011.2 |
| 20260509002148 | 70 | 67 | 3.0 | 5.0 | 0.00 | 0.00 | 0.90 | 97 | 1011.2 |
| 20260509001646 | 70 | 25 | 2.0 | 5.0 | 0.00 | 0.00 | 0.90 | 97 | 1011.2 |
| 20260509001147 | 70 | 24 | 2.0 | 3.0 | 0.00 | 0.00 | 0.90 | 97 | 1011.2 |
| 20260509000647 | 70 | 333 | 1.0 | 3.0 | 0.00 | 0.00 | 0.90 | 97 | 1011.5 |
| 20260509000147 | 70 | 355 | 2.0 | 5.0 | 0.00 | 0.00 | 0.90 | 97 | 1011.5 |
| 20260508235649 | 70 | 306 | 1.0 | 4.0 | 0.00 | 0.00 | 0.90 | 97 | 1011.9 |
| 20260508235151 | 69 | 333 | 3.0 | 3.0 | 0.00 | 0.00 | 0.90 | 97 | 1011.5 |
| 20260508234648 | 69 | 313 | 5.0 | 6.0 | 0.00 | 0.00 | 0.90 | 97 | 1011.5 |
| 20260508234147 | 69 | 19 | 3.0 | 6.0 | 0.00 | 0.00 | 0.90 | 97 | 1011.9 |
| 20260508233647 | 69 | 39 | 3.0 | 6.0 | 0.00 | 0.00 | 0.90 | 98 | 1011.9 |
| 20260508233148 | 69 | 349 | 3.0 | 5.0 | 0.00 | 0.00 | 0.90 | 98 | 1011.9 |
| 20260508232649 | 69 | 84 | 3.0 | 3.0 | 0.00 | 0.00 | 0.90 | 98 | 1011.5 |
| 20260508232146 | 69 | 346 | 5.0 | 7.0 | 0.00 | 0.00 | 0.90 | 98 | 1011.9 |
| 20260508231648 | 69 | 173 | 3.0 | 5.0 | 0.00 | 0.00 | 0.90 | 98 | 1011.5 |
| 20260508231147 | 69 | 347 | 3.0 | 5.0 | 0.00 | 0.00 | 0.90 | 98 | 1011.5 |
| 20260508230647 | 69 | 277 | 3.0 | 5.0 | 0.00 | 0.00 | 0.90 | 98 | 1011.5 |
| 20260508230148 | 69 | 59 | 4.0 | 7.0 | 0.00 | 0.00 | 0.90 | 98 | 1011.5 |
| 20260508225647 | 68 | 52 | 5.0 | 7.0 | 0.00 | 0.00 | 0.90 | 98 | 1011.5 |
| 20260508225149 | 68 | 135 | 6.0 | 8.0 | 0.02 | 0.00 | 0.90 | 98 | 1011.9 |
| 20260508224646 | 68 | 233 | 4.0 | 7.0 | 0.09 | 0.00 | 0.90 | 98 | 1011.9 |
| 20260508224147 | 68 | 200 | 1.0 | 9.0 | 0.24 | 0.00 | 0.89 | 98 | 1011.9 |
| 20260508223647 | 68 | 72 | 4.0 | 9.0 | 0.19 | 0.00 | 0.88 | 98 | 1011.9 |
| 20260508223146 | 68 | 39 | 2.0 | 9.0 | 0.05 | 0.00 | 0.85 | 98 | 1011.9 |
| 20260508222648 | 68 | 21 | 4.0 | 6.0 | 0.00 | 0.00 | 0.85 | 98 | 1011.9 |
| 20260508222147 | 68 | 289 | 2.0 | 8.0 | 0.00 | 0.00 | 0.85 | 98 | 1011.5 |
| 20260508221647 | 68 | 186 | 2.0 | 8.0 | 0.00 | 0.00 | 0.85 | 98 | 1011.9 |
| 20260508221151 | 68 | 10 | 5.0 | 10.0 | 0.00 | 0.00 | 0.85 | 98 | 1011.9 |
| 20260508220647 | 68 | 165 | 4.0 | 8.0 | 0.02 | 0.00 | 0.85 | 98 | 1011.9 |
| 20260508220147 | 68 | 64 | 7.0 | 11.0 | 0.07 | 0.00 | 0.85 | 98 | 1011.9 |
| 20260508215647 | 68 | 85 | 5.0 | 11.0 | 0.12 | 0.00 | 0.84 | 98 | 1011.9 |
| 20260508215148 | 68 | 73 | 8.0 | 13.0 | 0.05 | 0.00 | 0.83 | 98 | 1012.2 |
| 20260508214647 | 68 | 64 | 10.0 | 13.0 | 0.00 | 0.00 | 0.82 | 98 | 1012.5 |
| 20260508214147 | 68 | 40 | 4.0 | 9.0 | 0.00 | 0.00 | 0.82 | 98 | 1012.2 |
| 20260508213646 | 68 | 22 | 3.0 | 11.0 | 0.02 | 0.00 | 0.82 | 98 | 1012.9 |
| 20260508213148 | 68 | 49 | 7.0 | 14.0 | 0.02 | 0.00 | 0.82 | 98 | 1012.9 |
| 20260508212649 | 68 | 45 | 5.0 | 10.0 | 0.02 | 0.00 | 0.82 | 99 | 1012.9 |
| 20260508212146 | 68 | 19 | 6.0 | 14.0 | 0.07 | 0.00 | 0.82 | 99 | 1013.2 |
| 20260508211647 | 68 | 20 | 5.0 | 11.0 | 0.21 | 0.00 | 0.81 | 99 | 1013.2 |
| 20260508211148 | 68 | 56 | 6.0 | 14.0 | 0.59 | 0.00 | 0.81 | 99 | 1013.2 |
| 20260508210647 | 68 | 41 | 4.0 | 18.0 | 0.69 | 0.00 | 0.77 | 99 | 1013.2 |
| 20260508210148 | 68 | 20 | 11.0 | 13.0 | 0.57 | 0.00 | 0.71 | 98 | 1013.2 |
| 20260508205647 | 68 | 42 | 3.0 | 13.0 | 0.73 | 0.00 | 0.65 | 98 | 1013.9 |
| 20260508205149 | 68 | 342 | 12.0 | 13.0 | 1.16 | 0.00 | 0.61 | 98 | 1013.2 |
| 20260508204646 | 68 | 28 | 14.0 | 21.0 | 1.39 | 0.00 | 0.52 | 97 | 1012.5 |
| 20260508204146 | 68 | 30 | 13.0 | 18.0 | 1.91 | 0.00 | 0.41 | 97 | 1013.2 |
| 20260508203647 | 69 | 48 | 5.0 | 14.0 | 1.56 | 0.00 | 0.26 | 96 | 1012.5 |
| 20260508203146 | 69 | 28 | 9.0 | 18.0 | 0.31 | 0.00 | 0.05 | 93 | 1012.9 |
| 20260508202646 | 70 | 348 | 5.0 | 20.0 | 0.00 | 0.00 | 0.00 | 91 | 1012.5 |
| 20260508202147 | 70 | 37 | 9.0 | 27.0 | 0.00 | 0.00 | 0.00 | 90 | 1012.2 |
| 20260508201647 | 70 | 29 | 5.0 | 19.0 | 0.00 | 0.00 | 0.00 | 89 | 1011.9 |
| 20260508201147 | 70 | 58 | 8.0 | 24.0 | 0.00 | 0.00 | 0.00 | 89 | 1012.2 |
| 20260508200649 | 71 | 15 | 9.0 | 22.0 | 0.00 | 0.00 | 0.00 | 89 | 1011.9 |
| 20260508200147 | 72 | 43 | 9.0 | 19.0 | 0.00 | 0.00 | 0.00 | 88 | 1011.9 |
| 20260508195649 | 72 | 51 | 11.0 | 23.0 | 0.00 | 0.00 | 0.00 | 89 | 1012.2 |
| 20260508195149 | 73 | 35 | 9.0 | 17.0 | 0.00 | 0.00 | 0.00 | 88 | 1012.2 |
| 20260508194651 | 74 | 53 | 15.0 | 23.0 | 0.00 | 0.00 | 0.00 | 87 | 1012.2 |
| 20260508194148 | 75 | 52 | 10.0 | 18.0 | 0.00 | 0.00 | 0.00 | 87 | 1012.2 |
| 20260508193648 | 74 | 54 | 10.0 | 15.0 | 0.00 | 0.00 | 0.00 | 88 | 1012.5 |
| 20260508193146 | 74 | 27 | 9.0 | 13.0 | 0.00 | 0.00 | 0.00 | 88 | 1012.9 |
| 20260508192649 | 75 | 47 | 8.0 | 11.0 | 0.00 | 0.00 | 0.00 | 87 | 1012.9 |
| 20260508192153 | 75 | 69 | 7.0 | 12.0 | 0.00 | 0.00 | 0.00 | 87 | 1012.9 |
| 20260508191148 | 76 | 38 | 4.0 | 10.0 | 0.00 | 0.00 | 0.00 | 86 | 1012.9 |
| 20260508190647 | 76 | 50 | 4.0 | 14.0 | 0.00 | 0.00 | 0.00 | 85 | 1012.9 |
| 20260508190151 | 77 | 18 | 6.0 | 10.0 | 0.00 | 0.00 | 0.00 | 84 | 1012.9 |
| 20260508185646 | 77 | 34 | 6.0 | 11.0 | 0.00 | 0.00 | 0.00 | 84 | 1012.5 |
| 20260508185148 | 78 | 63 | 6.0 | 9.0 | 0.00 | 0.00 | 0.00 | 82 | 1012.5 |
| 20260508184647 | 78 | 58 | 5.0 | 14.0 | 0.00 | 0.00 | 0.00 | 82 | 1012.5 |
| 20260508184150 | 78 | 165 | 5.0 | 6.0 | 0.00 | 0.00 | 0.00 | 83 | 1012.2 |
| 20260508183649 | 78 | 129 | 5.0 | 12.0 | 0.00 | 0.00 | 0.00 | 83 | 1012.2 |
| 20260508183147 | 78 | 85 | 5.0 | 10.0 | 0.00 | 0.00 | 0.00 | 82 | 1012.2 |